Find Starlink 31575

NORAD ID: 59471 Int'l Des: 2024-068 Owner: SPXS Country: US Constellation: starlink operational
LEOCIRCULAR

Live-Position

3D-Globus wird geladen...

Über Starlink 31575

Beschreibung wird geladen...

Nächste Überflüge

Passes for default location (London). Set your location on the main map for personalized predictions.

Höhenverlauf

Loading altitude history...

Zweizeiliger Elementsatz

1 59471U 24068S 26124.27018683 .00000132 00000-0 14329-4 0 9995
2 59471 43.0038 77.1148 0001461 268.1719 91.8965 15.27580070117068
Epoch: 4. Mai 2026 • Age: 24 hours

Aktueller Status

Höhe 485.1 km
Geschwindigkeit 7.63 km/s
Subsatellitenpunkt 34.18°N, 160.82°E
Startdatum 10. Apr. 2024
Alter 2 years
Typ internet

Technische Details

Klassifizierung Payload
Masse 730.00 kg
Trockenmasse 700.00 kg
Gesamtmasse 730.00 kg
Länge 0.30 m
Durchmesser 4.10 m
Spannweite 29.00 m
Form Box + pan
Hersteller SPXS
Bus-Typ Starlink V2M
Phasenstatus In Orbit
Besitzer/Staat SPXS/US

Most Searched